When you browse on this site, cookies collect data to enhance your experience and personalize the content and advertising you see.
Visit our Privacy Policy to learn more. By continuing to use the site, you agree to this use of cookies and data.
  • In Sweden
  • List of Countries
  • For 7 days
  • Water Temperature
  • Weather Map
  • Weather Widgets
  • user-avatar
    Login

    Hourly Weather Brasília

    Today, 28 March, Saturday

    Time Temperature Precipitation Wind Pressure Humidity
    00:00 +20°C° 0.3 mm 1 mps 665 mmHg 94%
    01:00 +19°C° 1.3 mm 2 mps 665 mmHg 95%
    02:00 +19°C° 1.3 mm 2 mps 665 mmHg 95%
    03:00 +19°C° 0 mm 2 mps 665 mmHg 96%
    04:00 +19°C° 0.2 mm 2 mps 665 mmHg 95%
    05:00 +19°C° 0.2 mm 2 mps 665 mmHg 94%
    06:00 +19°C° 0.2 mm 2 mps 665 mmHg 93%
    07:00 +20°C° 0 mm 3 mps 666 mmHg 92%
    08:00 +20°C° 0 mm 3 mps 666 mmHg 90%
    09:00 +21°C° 0 mm 3 mps 667 mmHg 90%
    10:00 +22°C° 0.3 mm 3 mps 667 mmHg 86%
    11:00 +24°C° 0.3 mm 3 mps 667 mmHg 82%
    12:00 +25°C° 0.3 mm 3 mps 667 mmHg 77%
    13:00 +25°C° 1.1 mm 3 mps 667 mmHg 78%
    14:00 +26°C° 1.1 mm 3 mps 666 mmHg 78%
    15:00 +26°C° 1.1 mm 3 mps 666 mmHg 78%
    16:00 +25°C° 0.9 mm 3 mps 665 mmHg 82%
    17:00 +24°C° 0.9 mm 3 mps 665 mmHg 86%
    18:00 +22°C° 0.9 mm 3 mps 664 mmHg 89%
    19:00 +21°C° 0.8 mm 3 mps 665 mmHg 90%
    20:00 +21°C° 0.8 mm 2 mps 666 mmHg 90%
    21:00 +20°C° 0.8 mm 2 mps 666 mmHg 91%
    22:00 +20°C° 0.2 mm 2 mps 666 mmHg 92%
    23:00 +20°C° 0.2 mm 2 mps 666 mmHg 93%

    Tomorrow, 29 March, Sunday

    Time Temperature Precipitation Wind Pressure Humidity
    00:00 +20°C° 0.2 mm 2 mps 666 mmHg 94%
    01:00 +20°C° 0.5 mm 2 mps 666 mmHg 94%
    02:00 +20°C° 0.5 mm 2 mps 666 mmHg 94%
    03:00 +20°C° 0.5 mm 2 mps 666 mmHg 95%
    04:00 +20°C° 0 mm 2 mps 666 mmHg 95%
    05:00 +19°C° 0 mm 2 mps 666 mmHg 95%
    06:00 +19°C° 0 mm 2 mps 666 mmHg 95%
    07:00 +20°C° 0 mm 3 mps 667 mmHg 93%
    08:00 +21°C° 0 mm 3 mps 668 mmHg 91%
    09:00 +22°C° 0 mm 3 mps 668 mmHg 88%
    10:00 +24°C° 0.1 mm 3 mps 668 mmHg 84%
    11:00 +25°C° 0.1 mm 4 mps 668 mmHg 79%
    12:00 +26°C° 0.1 mm 4 mps 669 mmHg 74%
    13:00 +26°C° 0.1 mm 4 mps 668 mmHg 72%
    14:00 +26°C° 0.1 mm 4 mps 667 mmHg 71%
    15:00 +27°C° 0.1 mm 3 mps 666 mmHg 69%
    16:00 +25°C° 0 mm 3 mps 666 mmHg 74%
    17:00 +24°C° 0 mm 3 mps 666 mmHg 79%
    18:00 +23°C° 0 mm 2 mps 665 mmHg 84%
    19:00 +21°C° 0 mm 2 mps 666 mmHg 87%
    20:00 +21°C° 0 mm 3 mps 666 mmHg 89%
    21:00 +20°C° 0 mm 3 mps 666 mmHg 91%
    22:00 +20°C° 0 mm 3 mps 666 mmHg 91%
    23:00 +19°C° 0 mm 2 mps 666 mmHg 91%

    Day after tomorrow, 30 March, Monday

    Time Temperature Precipitation Wind Pressure Humidity
    00:00 +19°C° 0 mm 2 mps 667 mmHg 90%
    01:00 +19°C° 0 mm 2 mps 666 mmHg 91%
    02:00 +18°C° 0 mm 2 mps 666 mmHg 92%
    03:00 +18°C° 0 mm 2 mps 665 mmHg 93%
    04:00 +18°C° 0 mm 2 mps 665 mmHg 93%
    05:00 +18°C° 0 mm 2 mps 666 mmHg 94%
    06:00 +18°C° 0 mm 2 mps 666 mmHg 95%
    07:00 +19°C° 0 mm 2 mps 666 mmHg 91%
    08:00 +20°C° 0 mm 3 mps 667 mmHg 88%
    09:00 +21°C° 0 mm 3 mps 668 mmHg 85%
    10:00 +24°C° 0 mm 3 mps 668 mmHg 80%
    11:00 +25°C° 0 mm 3 mps 667 mmHg 76%
    12:00 +26°C° 0 mm 3 mps 667 mmHg 71%
    13:00 +26°C° 0 mm 3 mps 667 mmHg 70%
    14:00 +27°C° 0 mm 3 mps 666 mmHg 69%
    15:00 +27°C° 0 mm 3 mps 665 mmHg 68%
    16:00 +26°C° 0 mm 2 mps 665 mmHg 73%
    17:00 +25°C° 0 mm 2 mps 665 mmHg 79%
    18:00 +24°C° 0 mm 2 mps 664 mmHg 84%
    19:00 +23°C° 0 mm 2 mps 664 mmHg 87%
    20:00 +21°C° 0 mm 2 mps 665 mmHg 90%
    21:00 +20°C° 0 mm 2 mps 665 mmHg 93%
    22:00 +20°C° 0 mm 2 mps 665 mmHg 93%
    23:00 +20°C° 0 mm 2 mps 665 mmHg 93%

    31 March, Tuesday

    Time Temperature Precipitation Wind Pressure Humidity
    00:00 +19°C° 0 mm 2 mps 665 mmHg 94%
    01:00 +19°C° 0 mm 2 mps 665 mmHg 94%
    02:00 +19°C° 0 mm 2 mps 664 mmHg 94%
    03:00 +18°C° 0 mm 2 mps 664 mmHg 95%
    04:00 +18°C° 0 mm 2 mps 664 mmHg 95%
    05:00 +19°C° 0 mm 1 mps 664 mmHg 95%
    06:00 +19°C° 0 mm 1 mps 664 mmHg 95%
    07:00 +20°C° 0 mm 2 mps 665 mmHg 90%
    08:00 +21°C° 0 mm 2 mps 666 mmHg 85%
    09:00 +22°C° 0 mm 3 mps 667 mmHg 80%
    10:00 +25°C° 0 mm 3 mps 667 mmHg 75%
    11:00 +26°C° 0 mm 3 mps 667 mmHg 69%
    12:00 +27°C° 0 mm 3 mps 667 mmHg 64%
    13:00 +27°C° 0 mm 3 mps 666 mmHg 63%
    14:00 +28°C° 0 mm 3 mps 665 mmHg 61%
    15:00 +28°C° 0 mm 2 mps 665 mmHg 60%
    16:00 +27°C° 0 mm 2 mps 664 mmHg 66%
    17:00 +25°C° 0 mm 2 mps 664 mmHg 72%
    18:00 +24°C° 0 mm 2 mps 664 mmHg 77%
    19:00 +23°C° 0 mm 2 mps 664 mmHg 80%
    20:00 +22°C° 0 mm 1 mps 664 mmHg 83%
    21:00 +21°C° 0 mm 1 mps 665 mmHg 86%
    22:00 +21°C° 0 mm 1 mps 664 mmHg 88%
    23:00 +20°C° 0 mm 2 mps 664 mmHg 90%

    1 April, Wednesday

    Time Temperature Precipitation Wind Pressure Humidity
    00:00 +20°C° 0 mm 2 mps 664 mmHg 92%
    01:00 +19°C° 0 mm 2 mps 664 mmHg 93%
    02:00 +19°C° 0 mm 2 mps 664 mmHg 94%
    03:00 +19°C° 0 mm 2 mps 664 mmHg 95%
    04:00 +19°C° 0 mm 2 mps 664 mmHg 95%
    05:00 +18°C° 0 mm 2 mps 664 mmHg 95%
    06:00 +18°C° 0 mm 2 mps 664 mmHg 95%
    07:00 +20°C° 0 mm 2 mps 665 mmHg 89%
    08:00 +21°C° 0 mm 3 mps 666 mmHg 83%
    09:00 +22°C° 0 mm 3 mps 666 mmHg 77%
    10:00 +25°C° 0 mm 3 mps 667 mmHg 73%
    11:00 +26°C° 0 mm 3 mps 667 mmHg 68%
    12:00 +27°C° 0 mm 3 mps 667 mmHg 64%
    13:00 +27°C° 0 mm 3 mps 666 mmHg 63%
    14:00 +27°C° 0 mm 3 mps 665 mmHg 63%
    15:00 +28°C° 0 mm 3 mps 665 mmHg 62%
    16:00 +26°C° 0 mm 2 mps 664 mmHg 68%
    17:00 +25°C° 0 mm 2 mps 664 mmHg 74%
    18:00 +24°C° 0 mm 2 mps 664 mmHg 80%
    19:00 +23°C° 0 mm 2 mps 664 mmHg 83%
    20:00 +22°C° 0 mm 1 mps 664 mmHg 86%
    21:00 +21°C° 0 mm 1 mps 665 mmHg 89%
    22:00 +21°C° 0 mm 1 mps 665 mmHg 89%
    23:00 +21°C° 0 mm 1 mps 665 mmHg 90%

    2 April, Thursday

    Time Temperature Precipitation Wind Pressure Humidity
    00:00 +21°C° 0 mm 1 mps 665 mmHg 90%
    01:00 +20°C° 0 mm 1 mps 665 mmHg 91%
    02:00 +20°C° 0 mm 1 mps 665 mmHg 92%
    03:00 +19°C° 0 mm 2 mps 665 mmHg 93%
    04:00 +20°C° 0 mm 1 mps 665 mmHg 94%
    05:00 +20°C° 0 mm 1 mps 665 mmHg 94%
    06:00 +19°C° 0 mm 1 mps 665 mmHg 94%
    07:00 +21°C° 0 mm 1 mps 666 mmHg 89%
    08:00 +23°C° 0 mm 2 mps 667 mmHg 83%
    09:00 +24°C° 0 mm 2 mps 667 mmHg 77%
    10:00 +26°C° 0 mm 2 mps 667 mmHg 72%
    11:00 +27°C° 0 mm 2 mps 668 mmHg 66%
    12:00 +28°C° 0 mm 2 mps 668 mmHg 61%
    13:00 +28°C° 0 mm 2 mps 667 mmHg 61%
    14:00 +28°C° 0 mm 2 mps 666 mmHg 61%
    15:00 +28°C° 0 mm 1 mps 665 mmHg 60%
    16:00 +27°C° 0.1 mm 1 mps 665 mmHg 66%
    17:00 +26°C° 0.1 mm 1 mps 664 mmHg 72%
    18:00 +24°C° 0.1 mm 1 mps 664 mmHg 78%
    19:00 +24°C° 0 mm 1 mps 664 mmHg 80%
    20:00 +23°C° 0 mm 1 mps 665 mmHg 82%
    21:00 +20°C° 0 mm 0 mps 665 mmHg 84%
    22:00 +20°C° 0 mm 0 mps 665 mmHg 85%
    23:00 +22°C° 0 mm 1 mps 665 mmHg 86%
    Show more